Temperature
14 14 15 15 13 12 13 14 15 15 15 17 18 18 17 17 17 18 18 18 18 18 17 17 17 17 17 17 17 17 17 17 17 17 16 16 16 16 16 16 16 16 16 16 15 15 15 15 15
14 14 15 14 12 12 13 14 14 15 16 17 17 17 17 17 17 17 17 17 17 17 17 17 17 17 17 17 17 17 17 17 17 16 16 16 16 16 16 16 16 15 15 15 15 15 15 15 15
13 14 14 11 11 12 14 15 14 15 17 17 16 16 16 16 16 17 17 17 17 17 17 16 16 16 17 17 17 17 17 17 16 16 16 16 16 16 16 15 15 15 15 15 15 15 15 15 15
13 14 13 11 12 12 14 15 14 15 16 16 16 15 16 16 16 16 17 17 17 17 16 16 16 16 16 16 16 16 16 16 16 16 16 16 16 16 16 15 15 15 15 15 15 15 15 15 15
13 13 11 11 12 12 12 14 15 15 15 15 16 15 15 16 16 16 16 16 16 16 16 16 16 16 16 16 16 16 16 16 16 16 16 16 16 16 15 15 15 15 15 15 15 15 14 14 14
12 11 11 11 12 13 13 15 15 15 15 15 15 14 15 16 16 16 16 16 16 16 16 16 16 16 16 16 16 16 16 16 16 16 16 16 16 15 15 15 15 15 15 15 14 14 14 14 14
11 10 11 11 12 13 14 15 15 14 14 15 15 14 14 15 15 15 15 15 15 16 16 16 16 16 16 16 16 16 16 16 16 16 16 15 15 15 15 15 15 15 14 14 14 14 14 14 14
11 10 11 10 11 13 14 15 16 15 15 16 15 14 14 15 15 15 15 15 15 15 15 15 15 15 15 15 15 16 15 15 15 15 15 15 15 15 15 15 15 14 14 14 14 14 14 14 14
11 10 10 10 11 13 14 14 15 15 15 15 15 15 15 15 15 15 15 15 15 15 15 15 15 15 15 15 15 15 15 15 15 15 15 15 15 15 15 15 14 14 14 14 14 14 14 14 14
10 10 10 12 12 13 14 14 14 14 13 13 14 15 15 14 14 15 14 14 14 14 15 15 15 15 15 15 15 15 15 15 15 15 15 15 15 15 14 14 14 14 14 14 14 14 13 13 13
9 10 11 12 13 14 14 14 14 14 13 14 14 14 14 14 14 14 14 14 14 14 14 14 15 15 15 15 15 15 15 15 15 15 15 15 15 14 14 14 14 14 14 14 13 13 13 13 13
9 10 11 12 13 13 13 13 13 14 15 15 16 15 14 14 14 14 14 14 14 14 14 14 14 14 14 15 15 14 14 15 14 14 14 14 14 14 14 14 14 14 14 13 13 13 13 13 13
9 10 11 12 13 13 13 13 13 13 15 15 15 14 14 14 14 14 14 14 14 14 14 14 14 14 14 14 14 14 14 14 14 14 14 14 14 14 14 14 14 13 13 13 13 13 13 12 12
9 10 11 11 12 12 12 12 12 13 14 14 14 14 13 14 14 14 14 14 14 14 14 14 14 14 14 14 14 14 14 14 14 14 14 14 14 14 14 14 13 13 13 13 13 12 12 12 12
10 9 10 10 11 11 12 11 11 13 13 13 13 13 13 13 13 13 14 14 14 14 14 14 14 14 14 14 14 14 14 13 13 14 14 14 13 13 13 13 13 13 13 12 12 12 12 12 12
8 8 9 10 10 11 11 10 11 12 12 12 12 12 13 13 13 13 14 14 13 13 13 13 13 13 13 13 13 13 13 13 13 13 13 13 13 13 13 13 13 13 12 12 12 12 12 12 12
7 7 8 9 10 10 10 10 10 11 12 11 12 12 12 12 13 13 13 13 13 13 13 13 13 13 13 13 13 13 13 13 13 13 13 13 13 13 13 13 12 12 12 12 12 12 12 11 11
7 7 7 8 9 9 9 9 9 10 11 11 11 11 12 12 12 13 13 13 13 13 13 13 13 13 13 13 12 12 12 12 12 12 12 12 13 12 12 12 12 12 12 12 11 11 11 11 11
7 7 7 8 9 9 8 8 9 9 9 9 10 10 11 12 12 12 12 13 13 13 13 12 12 12 12 12 12 12 12 12 12 12 12 12 12 12 12 12 12 12 12 11 11 11 11 11 10
7 7 7 7 8 9 8 8 8 9 9 9 10 10 10 11 11 12 12 12 12 12 12 12 12 12 12 12 12 12 12 12 12 12 12 12 12 12 12 12 12 11 11 11 11 11 10 10 10
7 7 7 7 7 8 8 8 8 8 9 9 9 10 10 10 11 11 12 12 12 12 12 12 12 12 12 12 12 12 11 11 11 11 11 11 11 11 11 11 11 11 11 11 11 10 10 10 9
6 7 7 7 7 7 7 7 7 7 7 8 8 9 9 10 10 11 11 11 12 12 12 11 12 12 12 12 11 11 11 11 11 11 11 11 11 11 11 11 11 11 10 10 10 10 9 9 9
6 6 7 7 6 6 6 6 6 7 7 7 7 8 9 9 10 10 11 11 11 11 11 11 11 11 11 11 11 11 11 11 11 11 11 11 11 11 11 11 10 10 10 10 9 9 9 9 8
5 6 6 6 5 6 6 6 6 6 7 7 7 7 8 9 9 10 10 10 11 11 11 11 11 11 11 11 11 11 11 11 11 11 10 10 10 10 10 10 10 10 10 9 9 9 8 8 8
5 5 5 5 5 5 6 6 6 6 6 7 7 7 8 9 9 9 9 10 10 10 10 10 10 11 10 10 10 10 10 10 10 10 10 10 10 10 10 10 10 9 9 9 9 8 8 8 7
5 5 5 5 5 5 5 5 6 5 5 6 7 7 7 8 8 9 9 9 10 10 10 10 10 10 10 10 10 10 10 10 10 10 10 10 10 10 10 9 9 9 9 8 8 8 8 7 7
4 4 4 4 4 4 4 4 5 5 5 5 5 6 6 7 8 8 8 9 9 9 10 10 10 9 10 9 9 9 9 9 9 9 9 9 9 9 9 9 9 8 8 8 8 7 7 7 6
4 4 3 3 4 5 5 4 4 4 4 4 4 4 5 6 6 7 7 8 8 9 9 9 9 9 9 9 9 9 9 9 9 9 9 9 9 9 8 8 8 8 7 7 7 7 7 6 6
3 3 3 3 3 4 4 5 4 4 4 4 3 3 4 4 5 6 6 7 7 8 8 8 8 8 8 8 8 8 8 8 8 8 8 8 8 8 8 8 7 7 7 7 7 6 6 6 5
3 3 3 3 3 3 3 4 3 2 2 2 3 3 3 4 4 5 6 6 6 7 7 7 7 8 8 8 8 8 8 8 8 8 8 8 8 8 7 7 7 7 6 6 6 6 5 5 5
Wind_Speed
4 3 2 4 5 2 5 6 4 2 3 2 2 4 7 6 5 4 2 6 11 12 14 18 19 19 19 18 18 18 17 17 17 17 17 16 16 16 16 16 16 16 16 16 16 16 16 16 16
1 1 4 4 4 3 6 5 5 5 4 2 2 3 3 2 1 4 5 6 11 13 15 16 19 19 19 18 18 18 17 17 17 17 16 16 16 16 16 16 16 16 16 16 16 16 16 15 15
0 2 3 4 5 7 6 4 6 3 2 2 2 2 2 2 3 4 4 10 11 11 14 17 19 19 19 18 18 18 17 17 17 16 16 16 16 16 16 15 15 15 15 15 15 15 15 14 14
2 3 3 3 8 7 5 3 3 1 0 1 3 2 1 1 2 3 8 10 12 10 13 17 19 19 18 18 18 17 17 17 16 16 16 16 16 16 15 15 15 15 15 15 15 14 14 14 14
3 3 3 4 8 6 5 4 2 1 2 2 3 3 1 3 3 8 10 10 12 10 12 16 18 18 18 17 17 17 17 16 16 16 16 16 16 15 15 15 14 14 14 14 14 14 14 14 13
2 3 4 7 8 5 4 4 2 2 2 2 4 4 1 2 6 10 9 9 10 10 11 15 17 17 17 17 16 16 16 16 16 16 16 16 15 15 15 14 14 13 13 13 13 13 13 13 13
3 4 6 6 5 5 5 3 4 4 3 4 5 5 2 3 6 9 9 9 9 10 10 11 14 15 16 16 16 16 15 16 16 16 16 16 15 15 14 14 13 13 13 13 13 13 13 13 13
3 3 4 5 6 6 3 3 3 5 4 3 5 7 5 6 8 9 9 8 9 9 9 9 12 13 13 14 15 15 15 16 16 16 16 16 15 15 14 13 13 13 13 12 12 12 12 12 12
3 3 7 7 7 5 3 2 1 1 4 2 1 3 4 12 12 12 9 8 9 9 8 9 10 11 12 13 14 15 15 16 16 15 16 15 14 14 13 13 13 13 12 12 12 12 12 12 12
4 8 9 5 5 4 3 3 3 3 2 1 1 3 9 13 14 14 13 12 11 11 9 8 9 10 12 11 12 12 12 13 14 14 14 14 14 13 12 13 13 12 12 12 12 12 11 11 10
5 7 4 3 2 2 2 2 2 5 4 5 6 10 13 13 14 14 13 12 10 10 10 9 9 10 10 9 10 10 10 11 13 13 14 14 13 12 12 11 11 11 11 11 11 11 10 10 9
4 4 3 3 1 1 1 2 1 3 5 3 8 14 16 15 15 14 13 11 9 10 10 9 9 10 9 10 9 9 9 9 9 11 13 12 9 9 9 9 9 9 9 9 9 9 9 9 9
5 2 2 3 2 2 1 2 2 4 3 2 8 13 14 14 11 10 10 9 9 11 10 9 9 9 9 9 8 8 8 9 10 10 11 11 9 7 7 7 8 8 8 8 7 7 7 7 7
5 3 3 3 3 1 2 3 2 4 2 5 10 12 12 12 10 9 9 9 11 11 11 9 9 9 10 7 7 7 8 9 9 9 10 11 10 9 7 7 7 7 7 7 7 6 6 5 5
2 2 3 4 3 2 2 5 6 4 5 6 9 9 9 8 8 9 10 10 11 11 10 10 9 9 9 8 8 8 8 9 8 8 9 10 10 10 8 6 5 5 7 8 7 6 6 4 4
3 4 5 5 5 3 5 9 6 5 7 8 8 7 7 6 6 6 7 7 9 11 10 10 9 9 8 7 7 7 8 8 8 8 9 9 9 10 9 6 5 6 7 7 5 3 3 3 2
3 6 7 4 5 3 5 7 4 4 7 8 8 8 7 5 4 4 6 8 9 11 11 10 9 9 8 7 7 7 8 7 7 8 8 8 9 9 9 6 5 6 6 5 3 3 2 2 2
7 6 5 6 3 4 5 5 3 3 6 8 7 6 6 6 6 5 5 7 9 9 9 10 9 8 8 7 6 5 5 5 6 6 7 8 8 8 8 7 6 6 5 3 3 3 3 2 1
5 4 5 4 2 4 6 6 4 2 5 6 6 7 7 6 4 3 4 6 8 8 9 10 10 9 8 6 5 4 4 3 3 4 6 8 8 8 8 6 5 5 3 3 3 2 3 3 2
5 5 3 2 1 3 3 5 4 3 5 6 7 7 6 4 3 3 4 6 8 10 10 9 10 10 9 6 5 3 4 3 3 4 5 6 7 7 7 6 4 4 3 4 3 3 2 2 3
5 7 5 2 1 1 1 3 4 3 2 2 3 5 5 5 6 5 5 5 7 9 10 10 10 10 9 8 6 5 4 4 2 2 2 3 6 7 7 6 5 4 4 3 2 3 3 2 1
6 4 4 3 2 1 3 4 5 4 3 4 4 3 4 4 4 4 5 5 6 7 7 8 9 9 9 9 8 9 6 5 4 4 3 3 5 6 6 6 5 4 3 3 2 2 2 3 1
3 1 3 3 2 0 2 3 5 2 5 6 6 5 5 4 4 5 5 6 5 5 6 6 8 8 8 8 9 9 6 4 3 4 4 3 3 5 6 6 5 4 3 3 3 3 2 2 2
2 3 2 1 1 4 7 5 5 5 8 5 5 5 5 4 4 3 3 3 3 3 4 5 7 7 8 8 8 8 9 7 7 5 5 4 2 3 4 5 5 4 3 3 3 3 3 2 2
4 4 2 2 3 6 6 6 7 5 5 6 6 5 5 4 4 3 3 3 4 4 4 5 7 7 7 8 8 8 8 8 9 7 6 5 3 3 3 4 4 3 3 3 3 3 3 2 2
5 5 4 4 4 2 4 7 5 3 3 3 2 2 1 2 3 4 4 4 4 5 5 6 7 6 7 7 7 6 6 5 5 5 5 5 4 4 4 5 4 4 4 4 3 2 2 2 2
4 3 2 2 0 1 4 4 5 2 2 1 0 1 1 1 1 2 2 3 3 4 5 5 6 6 6 6 5 5 6 5 5 5 4 4 3 4 5 5 4 4 4 4 3 2 2 2 2
3 4 3 3 3 3 3 3 3 3 2 1 1 1 1 1 1 1 0 1 1 2 2 3 4 5 5 5 5 4 5 5 5 5 5 5 4 5 5 5 4 4 3 3 3 2 2 2 2
3 2 2 3 2 3 3 4 2 4 3 3 2 1 1 0 0 1 1 1 2 2 2 2 2 3 4 4 4 5 4 4 5 5 5 5 4 5 5 5 4 4 3 3 3 2 2 2 1
1 3 4 3 3 2 2 4 2 2 2 1 1 1 1 1 1 1 2 3 3 3 2 2 2 2 3 4 4 4 4 4 4 4 4 5 5 5 5 5 4 4 3 3 3 3 2 2 2
Wind_Direction
324 9 63 62 65 67 232 237 221 221 216 215 165 155 161 165 168 183 123 134 133 142 149 148 145 141 138 134 129 125 122 119 117 116 114 112 109 105 103 100 97 94 91 89 86 84 82 80 78
317 55 62 72 121 200 249 234 218 220 193 131 82 101 118 174 108 120 134 141 135 138 143 146 145 142 139 136 132 130 127 123 120 118 116 114 110 107 104 100 97 94 92 90 87 84 81 80 78
156 68 99 106 165 197 226 223 215 246 216 150 109 78 135 157 143 150 149 141 130 132 138 142 144 143 140 138 135 132 130 126 122 120 118 115 111 108 105 101 98 96 93 90 88 85 82 80 78
105 74 76 142 215 220 221 235 204 187 194 138 140 121 98 36 154 148 136 136 130 130 136 142 140 140 140 138 136 134 132 128 125 122 120 117 113 109 106 103 100 97 94 91 88 85 83 81 80
73 110 142 214 230 241 240 251 216 183 168 161 145 139 107 357 102 125 130 133 134 133 134 141 140 139 138 138 137 134 132 129 127 125 122 118 114 111 107 104 101 99 97 93 89 86 83 81 81
101 117 167 216 228 244 251 229 189 186 172 149 140 132 118 93 119 130 129 129 131 130 129 137 137 136 137 137 135 135 134 131 128 127 124 119 116 112 108 105 103 100 97 93 90 87 83 80 79
156 158 195 204 214 233 235 193 178 186 186 197 163 134 139 145 135 131 127 124 124 123 122 125 128 130 131 132 132 131 131 130 128 125 122 118 116 113 110 106 103 100 97 94 91 87 83 80 79
161 154 190 203 198 225 211 172 187 181 202 160 148 152 176 170 142 130 123 121 123 121 120 118 122 123 124 127 128 128 126 123 122 121 118 115 111 108 107 104 103 100 98 95 93 89 84 81 78
134 183 210 203 192 219 196 172 225 142 131 127 175 195 177 146 141 136 130 129 134 133 126 123 121 120 120 122 123 123 121 118 115 114 113 109 104 102 100 101 101 99 98 97 95 89 85 80 75
170 209 219 200 194 206 196 184 177 122 133 142 64 71 129 146 151 151 153 153 154 152 141 132 127 125 124 123 117 114 114 113 111 112 111 107 103 100 100 98 96 95 95 95 91 86 82 77 72
189 213 217 226 225 219 182 190 185 146 193 198 177 158 152 158 159 161 164 162 161 157 146 140 132 128 126 124 120 114 113 111 111 113 113 110 103 98 95 90 86 87 88 85 84 79 78 77 75
199 232 222 234 235 207 197 162 173 203 224 208 176 161 162 166 169 169 167 162 156 155 149 143 135 130 127 126 125 123 120 117 117 118 119 115 106 98 94 89 86 86 88 85 82 79 78 75 73
216 244 230 257 272 260 260 218 210 249 273 132 143 154 164 168 171 167 158 153 154 156 153 148 141 138 135 129 130 129 127 127 126 123 122 122 117 110 102 94 89 87 92 91 86 83 80 74 68
206 224 259 263 260 251 224 265 214 248 154 133 150 164 170 171 168 157 156 163 165 162 158 150 146 144 139 136 134 135 133 130 127 126 128 127 124 120 112 101 93 89 94 96 95 92 88 79 73
159 196 262 246 221 220 166 266 233 218 155 161 169 172 172 174 168 171 172 172 168 163 157 152 151 144 142 138 137 134 135 133 129 130 131 130 128 125 119 108 99 95 99 96 89 83 81 74 65
140 180 228 234 198 211 167 241 245 185 167 181 181 178 178 181 181 182 177 171 163 158 159 157 154 146 143 139 134 134 135 133 131 131 131 129 130 129 122 112 105 107 103 96 92 79 65 57 48
174 207 214 226 192 178 185 236 247 179 173 186 185 182 183 184 187 185 180 173 166 161 159 158 153 152 146 136 129 126 129 127 130 131 130 130 129 131 126 119 115 114 103 92 93 70 76 64 35
195 201 203 208 200 176 202 233 265 189 179 187 187 185 186 193 202 190 178 167 162 159 159 158 153 149 140 129 117 112 109 113 121 128 133 134 133 132 127 119 116 115 103 84 76 76 56 63 29
180 185 210 223 213 177 205 231 245 206 180 192 194 195 198 205 196 171 170 163 154 155 161 164 160 156 150 148 146 144 146 133 119 124 134 137 136 136 129 122 117 116 114 113 105 86 66 38 18
201 202 212 263 243 192 199 247 254 222 195 196 195 197 204 201 179 172 169 167 167 169 171 172 170 166 165 165 156 139 133 127 123 118 123 136 139 139 137 128 131 126 117 109 102 96 90 50 37
219 209 203 188 20 52 118 283 257 250 212 204 200 193 193 190 192 186 178 179 176 176 179 182 177 171 166 153 132 113 100 92 109 128 134 134 141 137 136 136 134 131 131 141 137 121 116 114 32
227 216 208 176 144 237 177 229 257 233 235 227 223 211 208 211 195 187 181 181 186 187 180 178 174 168 165 158 157 155 160 169 181 170 158 137 137 138 139 138 134 133 131 139 144 122 121 129 124
215 167 189 184 162 199 197 205 263 215 227 234 226 222 219 212 194 194 195 191 188 177 171 168 166 165 165 166 170 167 162 160 144 138 140 138 126 132 136 139 135 131 129 136 130 126 121 130 144
137 75 82 76 125 226 208 196 250 217 215 223 226 220 221 214 202 196 189 170 161 144 151 159 164 166 164 166 172 173 167 158 150 155 162 158 145 127 129 135 135 137 131 134 141 138 134 144 138
132 127 148 195 214 234 180 193 240 231 221 217 218 218 220 210 196 187 177 169 164 160 165 165 167 168 169 171 176 176 171 168 171 173 175 168 164 170 171 148 144 139 136 137 130 137 145 153 153
183 165 171 189 207 247 171 212 240 250 264 239 211 187 177 200 199 192 190 182 175 174 173 171 176 175 171 176 178 170 164 167 174 176 172 174 178 177 164 155 149 141 137 134 126 131 153 143 161
161 183 158 126 96 182 229 267 304 308 333 347 145 116 158 210 208 198 181 169 168 176 180 178 176 176 173 173 167 165 166 167 169 167 159 160 156 152 151 149 148 144 139 137 136 144 166 155 172
148 146 129 145 170 218 246 245 249 271 282 301 309 265 294 357 41 35 121 145 161 163 151 152 161 171 169 163 164 163 163 165 161 158 162 162 159 152 150 153 152 150 144 142 143 154 159 165 195
129 143 147 151 171 176 226 262 241 230 234 227 230 236 272 297 43 42 49 60 62 77 101 116 135 142 155 162 155 149 152 151 153 162 169 165 159 157 162 164 161 162 160 155 156 177 178 184 210
164 175 161 171 210 191 193 271 323 288 298 284 290 326 22 20 50 70 68 65 64 67 83 106 119 142 156 155 146 148 148 146 154 163 166 159 161 163 165 163 163 168 170 171 176 189 195 197 220
Height
1496 1498 1500 1502 1507 1515 1513 1505 1499 1498 1497 1495 1496 1497 1498 1501 1505 1508 1503 1503 1507 1510 1514 1517 1520 1523 1526 1528 1530 1532 1534 1535 1537 1538 1539 1541 1542 1543 1544 1544 1545 1545 1546 1546 1546 1546 1546 1546 1546
1496 1498 1501 1502 1511 1518 1512 1501 1498 1495 1493 1494 1495 1495 1497 1498 1499 1499 1500 1503 1507 1511 1514 1517 1521 1524 1526 1529 1531 1533 1535 1536 1538 1539 1541 1542 1543 1544 1545 1545 1546 1546 1547 1547 1547 1548 1548 1548 1548
1495 1497 1500 1503 1509 1511 1503 1495 1494 1492 1492 1493 1494 1495 1496 1497 1498 1499 1500 1504 1508 1511 1514 1518 1521 1524 1526 1529 1531 1533 1535 1537 1539 1540 1541 1543 1544 1545 1546 1546 1547 1547 1548 1548 1549 1549 1549 1549 1549
1495 1498 1499 1504 1504 1500 1495 1491 1491 1491 1492 1492 1493 1495 1496 1498 1498 1499 1501 1505 1508 1512 1515 1518 1521 1524 1527 1529 1532 1534 1536 1538 1539 1541 1542 1543 1545 1546 1546 1547 1548 1548 1549 1549 1550 1550 1550 1550 1550
1494 1495 1500 1503 1500 1495 1491 1490 1490 1490 1491 1491 1492 1494 1496 1497 1498 1499 1502 1505 1509 1512 1516 1519 1522 1525 1527 1530 1532 1534 1536 1538 1540 1542 1543 1544 1545 1546 1547 1548 1549 1549 1550 1550 1551 1551 1551 1551 1551
1493 1493 1501 1501 1496 1491 1489 1488 1489 1489 1490 1491 1492 1494 1495 1497 1498 1500 1503 1506 1510 1513 1516 1520 1523 1525 1528 1530 1532 1535 1537 1539 1540 1542 1543 1545 1546 1547 1548 1549 1549 1550 1551 1551 1551 1552 1552 1552 1551
1491 1492 1495 1495 1494 1491 1487 1487 1488 1488 1489 1491 1491 1493 1495 1497 1499 1501 1504 1507 1511 1514 1517 1520 1523 1525 1528 1530 1533 1535 1537 1539 1541 1542 1544 1545 1546 1547 1548 1549 1550 1551 1551 1552 1552 1552 1552 1552 1552
1488 1491 1492 1493 1491 1488 1485 1485 1486 1487 1488 1490 1491 1492 1493 1496 1498 1502 1505 1508 1511 1514 1517 1519 1522 1525 1528 1530 1533 1535 1537 1539 1541 1542 1544 1545 1547 1548 1549 1550 1551 1551 1552 1552 1552 1553 1553 1552 1552
1486 1492 1490 1489 1488 1485 1482 1484 1485 1486 1487 1488 1489 1490 1491 1494 1497 1501 1504 1507 1510 1513 1516 1519 1522 1524 1527 1530 1532 1535 1537 1539 1541 1543 1544 1546 1547 1548 1549 1550 1551 1551 1552 1553 1553 1553 1553 1553 1552
1484 1486 1483 1482 1482 1481 1481 1482 1484 1485 1486 1487 1488 1489 1491 1493 1496 1498 1501 1505 1508 1511 1515 1518 1521 1524 1527 1529 1532 1534 1537 1539 1541 1542 1544 1546 1547 1548 1549 1550 1551 1552 1552 1553 1553 1553 1553 1553 1552
1480 1480 1479 1479 1479 1480 1480 1482 1483 1484 1486 1484 1485 1487 1489 1492 1495 1498 1500 1504 1506 1510 1513 1517 1521 1524 1526 1529 1532 1534 1536 1539 1541 1542 1544 1546 1547 1548 1549 1550 1551 1552 1552 1553 1553 1553 1553 1553 1552
1478 1477 1478 1477 1478 1479 1480 1481 1482 1482 1482 1482 1483 1485 1487 1490 1493 1496 1499 1503 1506 1509 1512 1516 1520 1523 1526 1529 1531 1534 1536 1538 1540 1542 1544 1546 1547 1548 1549 1550 1551 1552 1552 1553 1553 1553 1553 1552 1552
1476 1476 1477 1477 1477 1478 1479 1480 1480 1480 1480 1481 1483 1485 1486 1489 1492 1496 1500 1502 1505 1508 1511 1515 1519 1522 1525 1528 1531 1533 1536 1538 1540 1542 1544 1545 1547 1548 1549 1550 1551 1551 1552 1552 1553 1552 1552 1552 1552
1474 1475 1476 1476 1476 1477 1478 1479 1480 1478 1479 1480 1482 1484 1486 1489 1491 1495 1498 1500 1503 1507 1510 1514 1518 1521 1525 1527 1530 1533 1535 1538 1540 1542 1543 1545 1546 1548 1549 1550 1550 1551 1551 1552 1552 1552 1552 1551 1551
1473 1476 1476 1475 1476 1476 1478 1479 1477 1477 1479 1480 1482 1484 1486 1489 1491 1493 1496 1499 1502 1506 1510 1513 1517 1521 1524 1527 1530 1532 1535 1537 1539 1541 1543 1544 1546 1547 1548 1549 1550 1551 1551 1551 1551 1551 1551 1550 1550
1473 1477 1478 1474 1474 1475 1480 1479 1475 1476 1477 1479 1481 1483 1486 1488 1490 1493 1496 1499 1502 1505 1509 1512 1516 1519 1523 1526 1528 1531 1534 1536 1538 1540 1542 1544 1545 1546 1547 1548 1549 1550 1550 1550 1550 1550 1550 1549 1549
1475 1478 1477 1474 1472 1474 1477 1478 1474 1474 1476 1478 1480 1482 1484 1487 1490 1492 1495 1498 1501 1504 1507 1511 1514 1518 1521 1525 1528 1530 1533 1535 1537 1539 1541 1543 1544 1545 1546 1547 1548 1549 1549 1549 1549 1549 1549 1548 1548
1474 1476 1475 1475 1472 1474 1476 1476 1474 1474 1475 1477 1479 1481 1483 1485 1488 1491 1493 1496 1499 1503 1507 1510 1513 1516 1520 1523 1526 1529 1531 1534 1536 1538 1540 1541 1543 1544 1545 1546 1547 1547 1548 1548 1548 1547 1547 1547 1546
1471 1474 1475 1474 1471 1474 1475 1475 1475 1474 1475 1476 1477 1479 1481 1483 1486 1489 1492 1495 1498 1501 1505 1508 1511 1514 1517 1520 1523 1526 1529 1531 1534 1536 1538 1540 1541 1543 1544 1545 1545 1546 1546 1546 1546 1546 1545 1545 1544
1470 1473 1475 1474 1472 1473 1475 1476 1474 1473 1474 1474 1475 1476 1478 1481 1484 1487 1490 1492 1495 1498 1502 1505 1509 1512 1515 1519 1522 1525 1527 1530 1533 1535 1537 1538 1540 1541 1542 1543 1544 1544 1545 1545 1545 1544 1544 1543 1543
1470 1472 1473 1474 1474 1474 1475 1476 1474 1473 1473 1473 1474 1475 1477 1479 1481 1483 1486 1489 1492 1495 1499 1503 1506 1510 1513 1517 1520 1523 1526 1528 1530 1532 1534 1536 1538 1539 1540 1541 1542 1543 1543 1543 1543 1543 1542 1542 1541
1470 1469 1471 1472 1477 1479 1478 1482 1475 1473 1473 1472 1472 1474 1475 1478 1479 1480 1483 1485 1489 1492 1496 1500 1504 1507 1511 1514 1517 1520 1522 1524 1527 1529 1532 1534 1536 1537 1538 1539 1540 1541 1541 1541 1541 1541 1540 1540 1539
1470 1470 1471 1474 1478 1482 1481 1483 1477 1472 1472 1470 1470 1471 1473 1475 1477 1478 1480 1483 1486 1490 1494 1497 1501 1505 1508 1511 1514 1517 1520 1523 1525 1528 1530 1532 1534 1535 1536 1537 1538 1539 1539 1539 1539 1539 1539 1538 1538
1470 1472 1473 1476 1479 1482 1479 1482 1478 1473 1468 1468 1468 1469 1470 1472 1474 1477 1479 1481 1484 1487 1491 1494 1498 1501 1505 1508 1511 1515 1517 1520 1522 1525 1527 1529 1531 1532 1534 1535 1536 1536 1537 1537 1537 1537 1537 1536 1536
1471 1476 1480 1481 1481 1478 1475 1478 1473 1467 1465 1465 1466 1466 1467 1469 1472 1474 1476 1478 1481 1484 1488 1491 1494 1497 1501 1505 1508 1511 1514 1517 1520 1522 1524 1526 1528 1529 1531 1532 1533 1534 1534 1535 1535 1535 1534 1534 1533
1471 1475 1480 1481 1480 1479 1476 1474 1469 1465 1463 1463 1465 1466 1467 1468 1470 1472 1474 1476 1479 1482 1485 1488 1491 1494 1498 1501 1505 1508 1511 1514 1517 1520 1522 1523 1525 1527 1528 1529 1530 1531 1531 1532 1532 1532 1532 1531 1531
1472 1476 1476 1482 1483 1483 1478 1474 1468 1463 1462 1462 1463 1464 1465 1467 1468 1470 1472 1474 1477 1479 1482 1485 1488 1491 1494 1498 1502 1505 1508 1511 1514 1516 1519 1521 1522 1524 1525 1526 1527 1528 1528 1529 1529 1529 1529 1528 1528
1471 1473 1479 1482 1482 1479 1474 1474 1471 1465 1464 1463 1464 1464 1465 1466 1467 1469 1471 1473 1475 1477 1480 1483 1485 1488 1491 1495 1498 1501 1505 1508 1511 1513 1515 1517 1519 1521 1522 1523 1524 1524 1525 1525 1526 1526 1525 1525 1525
1473 1476 1476 1479 1479 1479 1477 1474 1467 1465 1464 1463 1463 1463 1464 1465 1466 1468 1469 1471 1473 1476 1478 1480 1483 1486 1488 1492 1495 1498 1501 1504 1507 1509 1512 1514 1516 1517 1518 1519 1520 1521 1521 1522 1522 1522 1522 1522 1521
1473 1473 1477 1480 1481 1482 1481 1476 1466 1465 1464 1464 1464 1464 1464 1465 1466 1467 1468 1470 1472 1473 1476 1478 1481 1483 1486 1489 1492 1495 1498 1501 1503 1506 1508 1510 1512 1513 1515 1516 1517 1517 1518 1518 1518 1518 1518 1518 1518